Gonets-M No. 30L

operational
NORAD ID: 47227 Int'l Des: 2020-091 Owner: GONETS Country: RU
LEOCIRCULARPOLAR

About Gonets-M No. 30L

Description loading...

Live Position

Loading 3D Globe...

Upcoming Passes

Altitude History

Altitude vs Time

uPlot chart will show altitude changes over time

Two-Line Element Set

1 47227U 20091A 26061.18688959 .00000010 00000-0 18224-5 0 9996
2 47227 82.5083 8.9420 0022054 54.7150 305.5988 12.42889355237780
Epoch: Mar 2, 2026 • Age: 40 hours

Current Status

Altitude 1486.9 km
Velocity 7.13 km/s
Sub-Earth Point 58.25°N, 14.8°W
Launch Date Dec 3, 2020
Age 5.2 years
Type other

Technical Details

Classification Payload
Mass 225.00 kg
Dry Mass 225.00 kg
Total Mass 225.00 kg
Length 1.60 m
Diameter 0.80 m
Span 7.00 m
Shape Cyl + Ant
Manufacturer RESH
Bus Type Strela-3M
Phase Status In Orbit
Owner/State GONETS/RU

Large Constellations

Loading constellations...